CAPE
2056 2008 2005 1998 1902 2053 2289 2651 2554 2140 1970 2076 2075 2054 2605 2296 2693 2775 2240 2361 1834 1968 1902 1814 1798 1702 2018 2194 2168 1824 1858 2173 2017 2069 2186 2486 2720 2865 2902 2863 2677 2496 2483 2348 2236 2170 2101 2032 2021 2018 2010 1946 1873 1884 1893 1882 1944 1904 2010 1850 1734 1552 1890 1967 1870 2061 1909 1970 2167 2070 2083 2021 1964 1866 1846 1843 1717 1730 1612 1536 1389 1305 1151 1118 1141
1891 1748 1512 1383 1596 1529 1943 2301 2131 1458 1580 1836 1661 2338 2814 2504 2593 2007 1507 1472 1572 1322 2506 1498 1538 1430 1703 1886 1794 1883 1812 2136 2006 2079 2281 2472 2565 3132 2873 2824 2762 2564 2458 2314 2195 2115 2104 2044 1977 1950 1831 1956 1895 1747 1834 1972 1847 2034 1928 1512 1552 1796 1920 1996 2003 1986 1950 2040 2102 1849 2102 2004 1914 1866 1811 1661 1784 1764 1651 1590 1520 1311 1196 1156 1066
1846 1400 1197 1334 1208 1440 1612 1714 1929 1653 1883 1836 2271 2582 2624 2600 2485 1988 2024 1674 1528 1566 1749 1647 1222 1076 1361 1590 1792 1988 1926 2059 2062 2071 2178 2351 2461 2708 2880 2844 2782 2642 2497 2360 2244 2230 2250 2145 2023 1911 2005 1918 1993 1931 2012 1959 1962 1922 1937 1838 2013 2022 2020 2010 2037 1993 2042 2044 2076 2173 2130 2006 1870 1840 1773 1782 1788 1770 1836 1822 1728 1684 1475 1463 1436
1707 1156 1014 1086 1177 1399 1536 1734 1642 1693 2210 2694 2592 3069 2248 2278 2450 1840 1615 1705 1953 1543 1980 1721 1120 1347 1269 1443 1690 2074 1959 1923 2094 2095 2108 2215 2390 2575 2686 2844 2893 2798 2638 2447 2376 2292 2395 2424 2200 2158 2080 1962 2120 1986 2014 2021 2003 1973 1954 2085 1972 2024 1976 1989 2007 1994 2160 2122 2324 2234 2168 2007 1958 1967 2009 2001 2073 2063 2116 2084 1997 1922 1871 1809 1802
1703 1159 1433 934 1324 1994 1555 1484 1308 1367 1533 1761 2244 3003 3110 2685 2610 2332 2002 1967 1411 1381 1880 1398 1187 1404 1284 1493 1431 1780 1886 1759 2035 2162 2119 2082 2133 2379 2536 2607 2684 2842 2726 2689 2620 2617 2481 2459 2480 2376 2299 2272 2204 2154 2170 2108 2181 2165 2133 2154 2137 2096 2113 2126 2053 2257 2332 2428 2562 2506 2353 2186 2307 2331 2413 2371 2378 2438 2342 2343 2364 2286 2193 2106 1991
1734 1513 1114 1146 1407 1634 1199 1127 1007 1186 1486 2254 2698 2445 2700 2430 2072 1459 2699 2111 1325 1500 2018 1940 850 1153 1424 1327 1857 1652 1353 1626 1731 2056 2058 1843 1878 2120 2306 2449 2404 2411 2582 2704 2716 2703 2713 2660 2612 2592 2468 2430 2441 2450 2346 2360 2419 2447 2421 2381 2352 2304 2302 2435 2458 2523 2564 2640 2715 2778 2829 2791 2694 2763 2787 2778 2836 2827 2740 2647 2600 2590 2563 2470 2350
1743 1502 1236 1035 1241 1362 1281 1151 1284 1479 1538 2273 2332 1918 2287 2511 1957 1482 1320 1305 1574 2265 1407 1816 1247 956 1338 1609 1368 1376 1465 1155 1427 1832 1927 1873 1884 1948 1976 2179 2166 2222 2340 2478 2971 2785 2889 2847 2784 2782 2761 2731 2777 2800 2736 2632 2672 2677 2674 2707 2566 2616 2646 2658 2697 2718 2765 2851 2879 2960 2999 3086 3050 3000 3063 3138 3170 3167 3081 2976 2933 2912 2883 2821 2740
2866 1931 1169 1104 1168 1442 1442 1595 1686 1981 2431 2989 2368 2292 2658 2890 2607 1012 886 947 1814 1561 1717 1996 1842 1358 1300 1545 1341 2290 1648 1702 1283 1675 1919 1998 1937 1920 1923 1985 2002 1973 2616 2199 2361 2707 3040 3079 3035 3013 2992 2964 2933 2931 2958 2906 2888 2922 2902 2844 2928 2862 2887 2917 2964 2974 3076 3140 3130 3155 3293 3305 3402 3423 3442 3450 3508 3546 3391 3340 3279 3228 3187 3146 3092
3147 3229 1802 1358 1443 1744 2190 2704 2560 2156 1915 3104 2915 3078 2684 2650 2454 1950 1700 1752 1792 1151 1448 1206 1424 1807 1302 1398 1760 2001 1777 1260 1542 1223 1431 2009 2086 2138 2064 1925 2086 2654 2557 2002 1959 2107 2896 3308 3290 3250 3179 3108 3036 2932 2949 2984 2984 2964 3034 3095 3066 3172 3143 3089 3112 3223 3387 3466 3481 3508 3507 3665 3726 3683 3689 3684 3698 3780 3779 3696 3658 3504 3375 3312 3247
3400 3557 4163 1853 2152 2310 2501 2967 3031 2953 3054 2760 2677 2735 2642 2649 3327 2151 2032 2938 2178 1825 1278 1514 1565 1752 1353 1494 1531 1943 1894 2001 2078 2692 1715 1585 1972 2090 2189 2129 2330 2424 2476 2028 1862 1711 1755 2947 3600 3512 3380 3239 3201 3136 3071 3038 2986 3014 3030 3061 3184 3123 3068 3274 3430 3498 3505 3570 3763 3893 3992 3960 3956 4005 4087 4036 3950 3985 4067 4004 3920 3852 3584 3528 3485
3308 3425 4155 2482 2019 2161 2545 2858 2725 3118 2558 2400 2627 2818 3009 2594 2837 2441 3875 3366 2820 2283 1664 1858 2182 1713 1338 1840 1927 2129 1900 1917 2438 1824 1776 1703 1589 2009 2058 2147 2345 2478 2689 2412 2121 2043 1803 1748 2367 2946 3108 3555 3446 3344 3347 3470 3300 3297 3193 3241 3265 3329 3442 3576 3706 3762 3833 3897 4008 4193 4239 4288 4224 4153 4164 4200 4083 4124 4062 3995 3867 3752 3565 3558 3638
3345 3475 3977 2543 2209 2247 2659 2901 2992 2927 2938 2608 2406 2339 2189 2342 3011 3021 3040 3168 3770 2645 1790 1903 2611 1005 1898 1457 1634 1901 1726 1981 1925 1951 1804 1771 1840 2065 1866 1864 2056 2198 2403 2426 2402 2381 2246 1696 1973 2100 2262 2735 3581 3900 3838 3798 3836 3730 3675 3572 3525 3607 3642 3800 4056 4087 4030 4145 4384 4569 4536 4380 4358 4217 4194 4215 4226 4157 4124 4074 4003 3825 3736 3648 3699
3595 3230 3141 3707 2455 2370 2552 2712 2706 2801 3319 2691 2111 2480 2793 3162 3919 4008 3180 2734 2069 2295 1836 2285 1997 1134 2257 1228 1506 1614 2210 2601 1770 1973 1976 1717 1496 1958 1828 2024 1946 1875 2086 1979 2400 2580 2297 1984 1996 2117 2300 2423 2680 3893 4286 4195 4258 4286 4207 4101 3950 4082 4044 3994 4106 4302 4339 4482 4656 4639 4495 4407 4324 4239 4312 4254 4180 4112 4016 3895 3838 3780 3743 3678 3665
3461 3261 3117 2955 2646 2546 2642 2438 2478 3033 3524 3464 3096 3369 3864 3297 3604 2950 2870 1890 2276 2545 2159 2111 2064 1020 1300 1102 1376 1156 1590 1656 1528 1592 1853 1609 1316 1590 1659 1914 1904 1844 1865 1846 2303 2486 2460 2332 2340 2300 2400 2586 2660 2697 2862 3630 4281 4341 4433 4642 4411 4367 4455 4487 4376 4418 4529 4580 4542 4430 4345 4166 4168 4202 4223 4162 4031 3984 3965 3889 3865 3737 3616 3487 3331
3125 3351 2980 3046 2848 2694 2629 2731 2710 3519 2692 3108 3081 2963 3102 3316 2855 3003 2833 2683 3514 3119 2253 1611 1613 2111 2583 2279 1158 1073 1080 1347 1180 1193 1161 1304 1302 1264 1425 1278 1440 994 1074 1246 1634 1860 2217 2254 2785 2722 2753 3018 3057 2908 2884 2939 3103 3972 4281 4286 4324 4630 4364 4275 4301 4205 4154 4182 4192 4128 4124 4090 4023 3970 3999 4067 4032 3989 3845 3777 3721 3570 3371 3324 3207
3019 3011 2843 2906 2831 2787 2771 2908 2592 2863 3054 3038 2856 2360 2829 3118 2626 3038 3428 2721 2071 1745 2513 2126 2129 1296 1536 1696 1188 830 975 731 963 855 698 338 602 938 758 729 919 843 990 1219 1309 1545 1625 1556 2537 2707 2796 3274 3240 2943 2900 2712 3415 4457 5013 4772 4153 3826 4348 4426 3954 3980 3952 3831 3925 3986 3964 3974 4027 4083 4028 3937 3808 3716 3761 3450 3222 3102 3012 2997 2703
2651 2593 2708 2902 2820 2711 2795 2867 2722 2726 3104 2892 2800 2554 2828 3169 2628 3277 2564 2294 2032 1384 1746 1657 1740 1974 2489 2627 1460 999 1146 1342 1409 548 1612 224 169 476 659 667 744 1067 950 1150 1140 1512 1237 1327 1728 1896 2458 2469 2942 3373 3444 3825 3996 4914 5846 5908 4744 3820 4014 4086 3939 3640 3709 3738 3737 3917 4102 4101 4025 3834 3810 3782 3699 3568 3335 3112 2984 2873 2612 2282 1797
2541 2507 2925 2903 2678 2818 2854 2790 2868 3180 3348 3041 2836 2830 2699 2860 3276 2919 3084 3017 3243 2094 1140 1919 1451 2788 2977 1829 1366 1104 1461 1887 931 425 1215 1806 91 424 633 548 611 1521 1018 988 793 1020 1615 1690 1972 2109 2442 2626 2704 2697 3785 4427 4614 5075 5290 4654 4993 4677 4449 4259 3714 3550 3609 3677 3869 4033 4008 3914 3793 3773 3572 3654 3616 3250 3060 2746 2446 1960 1856 1704 1520
2391 2278 2777 3081 2698 3256 2981 2972 2880 3331 3860 3411 2629 3550 2683 2660 2844 3685 3287 4088 3134 2443 1495 1335 1191 1334 1359 1818 2738 1860 1986 2062 1656 2526 340 160 1278 308 426 562 728 956 724 56 394 1116 1494 1851 2087 2207 2131 2604 2700 2977 4243 4528 5458 5634 5477 4702 4900 4981 4208 3697 3544 3339 3546 3986 4004 3828 3852 3855 3794 3554 3456 3376 3236 2776 2556 2143 1856 1623 1484 1132 854
2033 2632 2728 3005 2958 3200 3197 3121 2974 3056 3604 3979 3012 2890 2530 3000 2776 3631 3531 4861 2447 1989 1646 1499 1111 1620 2778 1905 2650 1591 1809 2065 1824 1582 2337 1581 1418 1181 355 491 568 748 708 755 567 795 1054 1558 1810 2197 2198 2696 3683 3741 3369 3359 3548 3701 3677 2706 3401 3995 3465 3084 3221 3381 3804 3828 3819 3668 3846 3814 3684 3523 3315 3082 2645 2236 1986 1682 1514 1276 1016 874 703
2305 2778 2653 2810 3599 3005 3242 3569 3005 3006 4084 3585 3310 3394 3110 2997 2909 2406 2474 2324 2682 3619 1901 3182 1730 1328 1715 1642 2245 2346 2512 1978 1977 2403 1834 1254 1517 1192 624 343 502 742 738 776 417 444 843 1173 1755 2132 2381 2372 2619 3338 3956 4143 3553 3141 2832 2674 3023 3243 3485 2931 2758 3713 3491 3410 3750 3761 3760 3692 3478 3409 2947 2601 2231 1823 1446 1218 1081 912 683 634 613
2818 2885 2751 2862 3326 3274 3435 3496 3287 3608 3292 3212 2968 3196 2863 3165 2981 2607 2580 2020 3518 1995 1275 3168 1420 2274 1792 2579 1897 2376 1601 1764 1472 1471 1599 1558 1371 1484 1232 423 571 768 897 694 695 853 921 1184 2041 2120 2689 2854 3041 2666 3532 3685 3140 3003 2585 3048 3665 3107 3133 2776 3008 3463 3133 3234 3329 3764 3675 3362 3211 2948 2525 2136 1882 1507 1154 878 625 673 605 594 511
3069 3036 3084 2832 3180 3515 3353 3214 3419 3989 3433 2959 2726 3006 3262 2918 2878 2965 2583 2610 1822 2197 2288 1645 1476 1602 2367 2478 1964 2556 1606 2082 1945 1664 2076 1866 1602 1847 1732 1666 510 725 532 758 1186 914 1063 1198 1932 2164 2413 2932 3006 2334 2515 3350 3596 3128 2519 2941 3014 3311 2938 3136 3120 3078 3073 2701 3142 3535 3328 2982 2905 2542 2162 1821 1481 1048 816 656 459 413 433 355 345
2954 3171 3312 2912 3177 3314 3251 3150 3512 3124 2961 4525 4300 2652 2863 2930 2727 2991 2385 2845 1828 4110 3490 1796 1258 1385 1681 2198 2373 2046 2352 2115 1470 1469 1052 1757 1394 1465 1688 1668 682 565 730 848 969 825 1116 1734 2164 2227 2305 2137 2470 3694 3415 3539 3577 3046 2645 2697 2936 3277 3533 4028 3260 3083 2867 2596 2277 2714 2853 2561 2601 2344 1718 1440 1079 797 445 541 468 402 390 410 192
2936 2940 3210 2946 3306 3110 3127 3103 3656 3061 3277 3726 3970 3132 2696 2694 2957 2922 2650 2290 2708 2652 1959 1924 2290 2210 1032 1124 1397 1319 1477 1500 1681 1840 1625 2957 1998 1442 1641 2028 2191 1254 648 391 316 936 1195 2181 2339 2375 2438 2534 2867 2749 3269 3164 3223 2796 2478 2859 2961 3358 3654 3630 3549 3086 2720 2524 2226 2781 2950 2562 2369 2085 1763 1238 918 564 590 523 541 556 417 414 370
2908 2877 3094 2944 3538 3287 3683 3652 3316 3552 3568 3357 3596 3673 3599 2930 2909 2466 2876 2886 2417 2715 2046 2093 2111 2195 2100 1357 1828 1498 1353 1208 1421 1257 937 988 1526 1698 1904 1845 2211 2416 1359 498 944 578 1060 2019 1952 2011 2792 3105 2934 3336 3112 3771 3559 2475 2076 2987 3273 3661 3850 3671 3599 2932 2655 2462 2056 2291 2690 2487 2195 2075 1630 1390 947 616 597 617 670 536 527 498 0
2529 2926 2983 2790 3379 3472 3705 3966 3560 3782 4091 4163 4164 4386 4086 3974 2907 2506 2625 2999 2454 2792 2676 2364 2316 2114 1479 2314 1661 1210 1352 1716 1218 849 685 944 1291 3266 1789 1423 1783 2662 1981 1244 582 621 845 1795 2233 1597 1637 2686 3370 3254 3016 3061 2971 2322 2432 3413 3367 3716 3798 3902 3306 3170 2654 2775 2336 2182 2312 2214 1989 1726 1552 1102 581 556 615 677 657 647 638 459 418
2660 2927 2860 2739 3122 3400 3609 3779 3819 4251 4212 4174 4349 4308 4172 3585 3830 3318 2804 3240 2780 2700 2688 2308 2042 2052 1736 1692 2371 1780 1164 2299 1730 2525 2873 2725 2847 3241 2035 1684 1642 1717 2374 2239 624 723 688 1896 2802 3069 2314 2644 3698 4323 3994 2959 2833 2964 2878 3697 3603 3649 3655 3939 3079 2908 2639 2933 2873 2280 2088 1999 1834 1710 1455 945 682 615 610 626 668 701 622 552 167
2992 2854 3244 2721 3051 3275 3290 3439 3544 4363 4200 4085 4112 4218 4087 3769 3517 3946 2876 2888 2483 2541 2799 2603 2273 1974 1714 1550 1548 1528 1527 3615 2314 2042 3010 2493 2425 3339 2989 3039 3145 2664 3033 2229 3085 2172 2183 1451 2742 3528 3499 3688 3159 3384 4005 3815 3344 3352 3031 3104 4018 3486 3469 3964 3288 2878 2644 2984 3131 2691 2371 1890 1723 1621 1435 1200 936 724 616 605 638 692 715 529 461
3046 2925 2751 2785 2841 3659 3194 3308 3990 4203 4020 3862 3812 4130 4124 3679 3634 3832 3369 2875 2421 2452 2474 2256 2250 2107 2167 1522 1629 1572 1428 1303 1232 1689 4604 2276 2079 2598 2804 3189 1746 1664 2749 2665 2784 2921 2458 2475 2911 3313 3759 4366 4054 3723 3909 3946 3871 3446 2940 3209 3903 3740 3672 4005 3520 2946 2532 2958 3218 3090 2608 1862 1757 1687 1622 1503 1298 990 755 647 618 684 783 609 439
2328 2328 2516 2994 3095 3136 2797 3121 4047 3891 3773 3644 3762 3828 4207 3569 3731 3747 3844 3443 3179 2422 2522 2590 2412 2106 1748 1847 1935 1271 1258 1397 1205 1305 2780 2128 2052 2302 2014 4104 2379 2577 3113 3641 2487 2809 3075 2927 2797 2797 2436 2892 3580 3009 3141 4082 3892 3266 2806 2900 3651 3820 3789 3830 3502 3007 2723 2876 3208 3304 2867 1979 1757 1694 1652 1678 1594 1389 1041 837 707 696 802 724 592
1752 2902 2312 2558 3428 3164 2934 3298 3695 3723 3468 3856 3691 3755 4312 3956 3589 3506 3628 3659 3591 3161 2990 2448 2332 2312 2054 1626 2218 2140 2357 2520 2331 2328 2558 2765 2165 2006 1846 2505 3822 2954 3005 3128 2563 2587 2957 3111 3214 3021 2574 2556 2879 2660 3090 3510 3132 2767 2848 3082 3096 3771 3881 3810 3612 3130 2960 2810 3144 3415 3128 2373 1789 1769 1922 2097 1753 1547 1363 1138 850 778 862 827 708
1961 3142 2339 2380 2754 2721 2970 2906 3184 3300 3348 3698 3719 3759 4289 3994 3929 3606 3297 3472 3138 3767 3287 2964 2357 2226 2353 1927 1540 2194 2568 2037 2162 2253 2413 2958 2805 2206 2441 2830 2715 2558 1851 2032 1986 2198 2274 3153 3111 2904 3190 3033 2780 2364 2188 2575 3802 3494 3576 3593 3607 3957 3656 3675 3538 3281 3003 2859 3020 3403 3345 2710 1962 1930 1984 2179 2157 1982 1879 1471 1045 808 872 950 808
1779 1979 2284 2384 2392 2507 2460 2470 2305 2714 3146 3347 3473 3513 3692 4130 3913 4121 3440 3265 3404 3669 3569 3277 3499 3655 3371 2161 1564 1826 2186 1931 2142 2006 1935 1605 2134 2200 2046 1893 1818 2457 2644 1988 2214 2254 2144 2521 2460 2565 2871 3030 3316 3680 3486 3027 2722 3141 3348 3141 3027 2792 3355 3253 3247 3182 3050 3027 3105 3346 3457 2976 2150 2044 2025 2154 2251 2141 2040 1964 1685 1027 880 1030 947
1436 1405 2019 1962 2304 2424 2409 2418 2260 2347 2617 2845 2941 3090 3593 3988 3953 3704 3388 3154 3452 3394 3570 3435 3210 3146 3118 3199 2611 2449 2766 2016 1842 1766 1747 1711 1698 1944 1845 1720 1553 1663 2253 2478 2192 2321 2376 2383 2772 3055 2860 3398 3520 3344 3591 3530 3408 3374 3358 3142 3002 2992 3076 3473 3681 3524 3403 3261 3234 3400 3490 3143 2392 2134 2102 2165 2259 2208 2091 2020 2009 1920 1204 1008 1053
1372 1422 1662 1741 1952 2365 2390 2421 2317 2130 2579 2592 2719 2842 3239 3480 3603 3429 3087 3054 3391 3350 3349 3408 3416 3249 3023 2960 3054 2564 2276 2204 2113 1986 1788 1508 1512 1663 2218 2216 1787 1584 1474 2129 2461 2112 2253 2474 2867 2797 3098 3433 3319 3305 3475 3439 3413 3457 3416 3611 3463 3286 2757 2846 3517 3726 3586 3247 3195 3309 3408 3197 2605 2220 2228 2239 2250 2257 2176 2062 2036 2107 1863 1036 1009
1069 1230 1687 1638 1787 2110 2214 2184 2559 2104 2712 2536 2430 2547 2731 2996 3218 3126 3062 3197 2995 3150 3237 3271 3707 3093 3059 2971 2977 2800 2582 2311 2472 2338 2129 1887 1470 1400 1378 1818 2273 1799 1518 2600 2528 2545 2841 2886 2806 3315 3586 3654 3732 3974 4092 3917 3734 3483 3414 3591 3429 3237 2921 2880 2925 3041 3388 3202 3089 3114 3162 3038 2605 2246 2297 2290 2238 2256 2224 2097 1980 2104 2103 1393 898
927 909 1219 1633 1752 2050 2058 1969 2328 2482 2202 2695 2335 2220 2454 2852 3135 3122 2945 2824 3092 3122 3207 3252 3249 3152 2992 2984 2863 2807 2732 2682 2592 2595 2408 2050 1695 1649 1604 1614 1782 2313 2525 2540 2866 3109 2612 2429 2823 3080 3140 3478 3665 3710 3601 3381 3316 3521 3824 3790 3365 3286 3174 3342 3501 3474 3451 3289 3004 2916 2974 2926 2572 2499 2431 2255 2146 2176 2143 2078 1913 2023 2112 1892 1217
674 560 791 1402 1829 2006 1986 1871 1931 2389 2179 2007 2398 2658 2419 2279 2501 2920 2991 2902 2779 2934 3155 3054 2969 2885 2814 2800 2703 2624 2611 2602 2560 2450 2399 2167 1861 1733 2122 2208 2072 2427 2626 2282 1900 2051 2428 2541 2581 3018 3216 3396 3605 3429 3292 3320 3847 4044 3933 3623 3273 3351 3923 3838 3550 3299 2954 2693 2624 2550 2548 2502 2525 2683 2581 2255 2209 2040 1976 1938 1843 1981 2100 2018 1651
822 584 309 754 1406 1933 1981 1783 1724 2013 2223 2096 1941 2342 2757 2665 2390 2226 2415 2731 2794 2704 2685 2758 2725 2676 2659 2573 2484 2511 2418 2442 2453 2428 2261 2515 2664 2544 2548 2514 2347 2227 2335 2604 2650 2488 2206 2257 2417 2476 2765 3006 3242 3569 3753 3992 3984 3412 3406 3693 3558 3005 2250 2733 3478 3472 3423 2989 2695 2500 2552 2561 2603 2609 2479 2318 2202 2115 2127 2036 1951 2048 2171 2105 1830
805 784 386 424 892 1416 1939 1790 1643 1721 2185 2176 2056 2162 2366 2455 2546 2579 2164 2136 2420 2593 2556 2452 2422 2362 2314 2315 2311 2224 2459 3054 2807 2607 2425 2284 2435 2590 2447 2329 2431 2370 2209 2080 2185 2720 3198 3348 3290 3179 3163 3234 3288 3252 3178 3309 3366 3121 2495 2131 2289 2450 2732 3086 3489 3774 3653 2921 3029 3300 3176 2628 2340 2386 2393 2282 2172 2242 2370 2340 2275 2265 2252 2210 2004
501 715 715 842 621 964 1394 1737 1626 1624 1800 2247 2373 2090 2308 2444 2252 2221 2371 2239 2060 2202 2256 2206 2113 2065 2041 1937 1890 2563 2594 3062 2817 2494 2278 2384 2532 2350 2302 2309 2287 2494 2552 2454 2370 2263 2216 2317 2643 3139 3363 3423 3402 3527 3456 3080 2858 2473 2491 2654 3192 3477 3473 3449 3243 2790 3110 3076 2473 2338 2266 2441 2322 2385 2244 2221 2492 2667 2684 2677 2662 2601 2455 2284 2142
722 566 559 586 805 702 915 1247 1574 1542 1541 1890 2211 2076 2040 2312 2463 2266 2150 2200 2153 2033 1898 1772 1683 1616 1570 1568 1474 1934 2854 2792 2599 2198 1989 1973 2001 2298 2436 2948 2929 2448 2548 2725 2681 2695 2730 2650 2644 2825 2990 3102 3163 3156 3068 2902 2644 2228 2247 2394 2551 2693 2776 2815 2797 2624 3021 2822 2380 2215 2195 2358 2418 2556 2720 2974 3048 3020 2895 2849 2810 2748 2573 2357 2203
895 821 821 752 825 1201 1001 856 1097 1386 1471 1510 1822 2059 1970 2052 2350 2485 2308 2170 2128 1918 1686 1538 1384 1380 1324 1207 1114 1047 933 914 1592 2079 1920 1789 1745 1749 1835 2172 3068 3786 3545 3413 3249 3227 3156 3055 3049 3074 3089 3051 3041 3029 2953 2704 2487 2582 2579 3125 3315 2880 2434 2599 2690 2579 3012 3888 2501 2365 2077 1933 3090 3411 3519 3524 3471 3277 3102 2983 2874 2734 2580 2409 2234
1488 1007 799 701 920 1350 1558 1050 806 982 1194 1372 1421 1571 1826 1851 1979 2271 2286 2274 2083 2014 1808 1495 1210 1179 1201 1172 1042 817 665 1177 2163 1677 1550 1596 1600 1562 1577 1575 1588 1717 2338 2978 3240 3328 3435 3522 3400 3313 3161 3053 3007 2980 2866 2694 2410 2361 2584 2736 2705 2605 2506 2403 2207 1954 1929 2039 2330 2461 2552 2841 3290 3424 3346 3301 3354 3331 3147 2901 2887 2732 2464 2273 2010
1340 1367 1290 856 924 1161 1417 1537 1707 1576 1106 1012 1173 1228 1212 1395 1594 1776 2010 2161 2124 1974 1818 1673 1402 1142 1106 1096 1058 967 808 678 521 1040 1785 1606 1448 1388 1400 1372 1341 1380 1436 1481 1471 1803 2355 2662 2989 3259 3547 3800 3705 3473 3259 2972 2794 3071 3169 3057 2806 2598 2617 2650 2596 2554 2530 3354 3369 3349 3430 3380 3155 2826 2692 2605 2612 2773 2857 2842 2627 2240 1989 1846 1712
1504 1264 1706 1787 1598 1744 1753 1690 1658 1716 1509 1470 1176 892 903 954 972 1354 1580 1760 1861 1902 1816 1653 1473 1220 1142 1063 1021 994 916 808 706 544 903 1799 1752 1498 1316 1210 1184 1206 1216 1244 1291 1290 1272 1292 1401 1584 1871 2305 2900 3276 3476 3632 3719 3593 3396 3350 3352 3282 3079 2856 2867 3111 3345 3622 3826 3739 3325 2951 2803 2653 2586 2569 2761 2892 2897 2924 2397 1976 1657 1438 1319
2265 1794 1957 1945 1917 1888 1559 1730 1567 1426 1532 1543 1459 1207 987 957 942 908 1148 1376 1527 1507 1531 1590 1519 1285 942 916 1010 970 920 883 898 810 954 1014 1873 1990 1773 1555 1345 1194 1130 1132 1248 1312 1239 1147 1064 1038 1039 984 1059 1415 1946 2419 2611 2629 2530 2340 2831 3119 3127 2868 2638 2589 2690 2790 3040 3088 2928 2745 2695 2658 2624 2605 2701 2888 2737 2550 2423 2302 1799 1452 1326
2248 1953 2031 2288 2390 2324 2192 1962 1748 1486 1492 1585 1563 1435 1256 1050 906 890 881 875 1104 1332 1240 1106 1105 1151 998 681 460 732 847 868 849 813 761 646 1189 2232 2355 2271 2180 2001 1771 1648 1565 1541 1556 1534 1586 1775 1886 1828 1593 1190 765 918 1386 1503 1361 1186 968 823 1215 1553 1772 2165 2557 2962 3247 3318 3212 2957 2663 2488 2438 2437 2467 2502 2456 2481 2545 2233 1798 1587 1444
1436 1905 2188 2194 2130 2292 2273 2068 1795 1650 1571 1655 1616 1597 1434 1394 1324 1089 883 816 831 887 1216 1028 911 897 850 1095 1469 606 509 577 802 919 846 720 641 975 2331 2862 2871 2876 2797 2791 2826 2535 2282 2347 2609 2760 2768 2723 2438 1972 1618 1433 1286 1020 912 922 814 633 746 1314 1810 2137 2328 2371 2383 2524 2889 2846 2604 2516 2487 2643 2850 2824 2862 2848 2617 2126 1621 1439 1429
1087 1347 1482 1606 1791 1998 2206 2344 2501 2322 2019 1789 1510 1383 1394 1386 1424 1403 1311 1074 884 842 853 1143 1118 924 933 925 1353 1318 766 646 530 642 721 845 771 712 673 1288 2068 2581 2929 3356 3613 3690 3525 3492 3484 3395 3244 3052 2795 2473 2153 1878 1644 1446 1288 1237 1084 852 699 637 737 964 1062 1049 992 1260 1318 1099 1009 1614 2550 2743 2630 2721 2520 2497 2249 1957 1729 1598 1510
Wind_Speed
9 10 9 9 10 11 12 15 13 12 11 12 12 13 14 12 11 11 12 12 12 14 12 12 12 10 12 13 15 15 16 17 15 14 14 13 14 14 14 15 18 20 20 20 19 17 17 16 17 18 19 19 20 22 24 24 25 24 24 24 24 22 23 24 23 24 25 24 24 25 25 25 25 26 26 26 27 27 27 28 28 28 28 28 28
9 10 10 12 12 12 14 17 15 12 13 13 16 16 15 11 12 12 13 13 14 15 12 11 8 9 11 13 14 16 17 17 15 15 14 14 15 17 15 17 20 21 21 21 19 18 18 18 19 20 20 21 22 24 25 26 25 25 24 24 23 24 24 23 25 26 26 25 26 26 26 27 27 27 27 28 28 28 28 29 29 29 29 28 28
9 10 11 13 14 14 15 17 15 14 16 18 19 19 17 13 14 15 15 15 16 16 14 13 13 10 11 12 15 17 18 17 16 15 15 16 16 19 19 20 22 22 22 20 19 19 19 20 21 21 22 23 25 26 27 27 25 25 24 24 25 26 25 25 26 28 27 27 26 27 28 28 28 28 28 28 29 29 29 29 29 29 29 29 29
10 11 12 13 15 15 16 16 16 17 19 21 22 24 19 17 16 17 17 17 18 18 18 15 16 18 18 14 16 18 17 17 17 16 17 17 17 19 22 23 23 22 22 21 20 21 22 22 22 23 24 25 27 27 27 26 26 24 24 25 26 26 26 27 28 28 28 28 28 29 29 29 29 29 29 29 29 30 30 30 30 30 30 30 29
12 12 13 14 14 14 15 17 17 18 20 22 25 24 21 18 18 18 19 19 18 20 19 18 18 21 21 20 17 18 18 18 18 17 18 18 19 20 23 24 23 23 23 22 23 23 23 23 24 25 26 27 28 28 27 27 26 25 26 27 27 27 28 29 29 29 29 29 29 29 29 29 29 30 30 30 30 30 31 31 31 30 30 30 30
13 13 13 14 14 14 16 18 18 18 21 23 24 23 21 19 20 20 21 20 21 22 20 17 19 21 22 23 20 18 18 19 19 19 19 20 20 22 23 22 22 21 21 24 25 24 24 25 26 27 28 28 28 28 27 27 27 27 27 28 29 29 30 30 30 30 30 30 30 30 30 30 30 30 31 31 31 31 31 32 31 31 31 30 30
15 15 15 14 16 16 18 18 18 18 21 22 23 22 20 20 19 19 20 22 21 21 18 18 18 20 22 23 22 23 20 18 20 19 19 21 22 23 22 21 21 20 20 20 22 25 26 27 28 28 28 28 28 28 28 28 28 28 29 29 30 31 31 31 31 30 30 31 31 30 31 31 31 31 32 32 32 32 32 32 31 31 31 30 30
16 16 16 16 16 17 18 18 18 18 20 20 20 21 20 18 18 17 18 21 21 21 21 18 20 21 23 22 22 23 25 23 19 19 21 22 23 22 21 21 20 19 19 19 19 20 28 29 30 29 28 28 28 28 28 29 29 29 30 30 31 31 32 32 32 31 31 31 31 31 31 31 31 32 32 32 32 31 32 32 31 31 31 30 30
15 14 14 15 16 17 18 17 17 17 18 19 19 20 18 16 16 17 18 19 20 21 23 22 22 23 23 23 23 23 24 23 22 20 21 21 22 20 20 20 19 20 18 17 17 19 25 30 29 29 28 28 28 28 28 28 29 29 30 31 31 32 32 32 32 32 32 32 31 31 31 31 31 31 31 31 31 31 31 31 31 31 31 31 30
16 16 15 14 14 15 15 15 15 16 17 16 17 17 18 17 17 18 20 20 21 22 23 24 25 25 25 24 26 24 26 25 25 23 21 20 19 19 19 19 19 18 18 17 17 18 20 25 29 28 28 27 27 27 27 28 29 29 30 30 31 31 31 31 31 31 31 31 31 31 30 30 30 29 29 30 30 30 30 30 30 31 31 30 30
16 17 17 13 13 13 15 15 15 15 15 16 17 18 18 18 17 19 19 19 20 22 24 24 24 26 23 22 24 27 26 25 22 21 20 19 19 18 17 18 18 17 17 17 17 17 18 19 20 19 21 26 26 26 27 27 28 29 29 30 30 31 31 31 31 30 30 30 29 29 28 28 28 28 28 28 28 28 28 29 29 29 28 27 28
15 17 17 14 13 13 14 15 16 15 15 15 17 17 18 18 18 18 18 20 23 23 24 24 24 21 20 23 25 23 24 24 22 22 21 20 19 17 17 17 17 16 16 17 15 16 17 18 18 18 18 20 24 25 26 26 27 27 28 28 29 30 30 30 29 28 28 27 27 26 25 25 25 26 26 26 26 26 26 26 26 26 25 25 26
13 14 15 14 14 14 14 15 16 16 15 16 17 17 18 17 17 17 17 19 22 22 24 22 20 22 23 22 24 25 23 23 23 21 20 20 18 16 15 15 18 16 16 16 15 15 16 16 17 16 16 17 18 22 24 24 25 25 26 27 27 28 28 27 26 25 24 24 24 22 23 23 23 23 23 24 24 23 23 23 23 23 22 22 21
12 13 14 12 12 13 14 15 15 14 14 15 16 17 16 17 17 17 18 18 20 21 23 19 21 20 20 22 24 24 24 22 21 20 19 17 18 16 14 15 18 18 15 14 14 15 15 14 15 15 14 16 16 16 17 20 22 24 24 25 26 26 26 25 23 22 21 21 20 19 19 20 20 21 21 21 21 21 20 19 19 18 18 17 17
11 12 13 11 11 12 14 14 13 12 13 16 14 15 17 18 17 17 19 18 20 22 19 19 20 19 19 18 20 19 21 21 21 19 17 16 16 15 14 14 18 15 12 11 13 13 13 12 14 14 13 15 15 14 15 16 18 21 22 23 23 23 23 21 20 19 18 17 16 16 17 18 19 19 19 19 18 17 16 16 15 15 14 14 14
11 11 12 11 10 11 14 12 12 12 13 14 13 15 16 17 16 18 15 17 19 20 17 17 16 16 19 18 18 14 17 20 19 15 14 14 13 13 12 12 13 14 10 12 12 13 11 11 11 12 12 14 13 14 14 14 17 20 20 19 20 19 19 18 17 16 14 14 13 14 15 16 17 17 17 16 15 13 14 12 12 12 12 12 12
10 11 11 10 10 11 11 11 11 12 13 12 13 15 16 15 16 15 15 16 19 18 17 15 14 14 14 16 17 15 15 16 13 11 8 6 11 11 12 10 11 13 11 12 10 10 10 9 9 11 13 13 12 11 13 12 12 12 13 14 15 16 14 14 13 12 11 11 11 12 13 14 14 15 14 14 13 12 12 12 12 12 12 14 15
10 11 9 9 10 11 10 10 11 12 12 12 14 14 15 14 14 15 16 17 15 14 14 15 14 14 13 13 12 12 14 15 7 7 12 9 nan 9 11 9 8 9 11 10 8 9 10 9 9 12 13 13 13 12 8 9 8 7 7 10 12 11 11 10 11 9 9 9 9 11 11 11 12 11 11 11 11 12 12 12 13 13 14 15 15
11 10 8 8 9 10 9 9 11 11 12 12 13 14 14 13 13 12 14 14 11 12 14 14 13 14 14 14 12 9 9 10 9 7 7 8 6 8 9 8 7 7 9 nan 7 8 10 8 10 11 12 12 14 11 7 5 4 5 6 7 7 8 8 9 8 7 7 7 8 9 8 8 9 9 10 11 11 11 11 12 13 14 14 14 14
12 9 8 8 9 9 8 9 9 11 11 11 12 13 13 10 10 10 11 10 10 10 10 11 10 11 11 11 13 11 9 7 5 5 6 5 10 11 9 10 6 8 10 10 6 9 8 9 10 10 10 13 8 4 3 3 3 3 5 6 6 7 7 5 5 6 6 7 7 6 6 7 7 9 11 11 12 12 13 13 13 13 13 14 14
10 9 8 8 8 8 9 9 9 10 10 11 11 11 10 8 7 6 8 10 9 9 8 9 8 9 7 10 10 11 10 8 6 3 4 6 11 9 9 10 8 9 10 10 10 9 7 7 9 8 9 9 5 3 3 2 2 3 5 7 7 6 5 4 5 5 7 7 5 5 6 7 9 10 12 13 13 13 14 14 13 12 12 12 13
8 8 8 9 8 8 9 9 9 8 8 10 10 9 7 5 6 5 7 8 9 8 8 7 5 6 4 5 6 8 9 9 7 6 5 6 8 9 9 5 5 11 9 9 10 9 6 4 4 6 7 6 5 3 2 1 2 3 5 8 7 6 4 5 5 7 8 8 7 7 9 10 11 13 14 14 14 14 14 14 13 12 11 12 12
6 7 7 8 9 9 9 10 9 8 8 10 9 7 6 5 4 4 5 6 7 7 7 6 4 5 4 3 5 5 5 6 8 6 4 5 8 11 8 7 6 5 7 7 8 10 7 3 4 4 4 4 3 2 1 1 3 4 8 9 8 7 6 6 7 8 10 9 9 10 12 13 15 16 17 17 16 15 14 13 13 12 12 11 11
5 6 7 7 8 9 10 10 8 8 9 9 7 6 6 5 5 4 5 6 6 5 5 6 5 5 5 5 7 6 7 7 7 6 5 4 5 11 11 10 7 4 8 8 8 8 5 4 3 3 2 2 2 1 1 1 3 7 7 9 9 9 9 8 11 10 11 11 11 11 13 14 16 18 18 19 18 16 14 13 12 11 12 11 11
6 5 6 7 7 8 10 8 7 9 9 8 8 7 6 6 5 5 5 6 5 5 5 7 5 5 6 7 6 7 10 10 7 6 6 4 4 7 11 9 5 5 6 5 6 8 7 2 2 2 2 3 2 2 2 2 2 5 8 8 12 11 11 11 11 12 13 13 13 14 15 17 18 20 21 20 20 18 16 13 11 11 11 11 10
5 5 5 6 6 7 7 6 7 8 8 7 8 8 6 5 5 5 5 6 5 5 5 8 8 7 6 4 3 5 8 8 10 7 6 5 6 6 8 11 8 7 6 5 4 4 5 4 3 3 4 2 1 1 3 4 3 6 9 7 11 13 13 13 14 13 15 15 15 14 15 17 20 21 22 21 21 19 16 13 11 10 10 11 nan
6 6 5 4 4 4 5 6 6 7 7 6 7 6 5 4 4 4 5 5 5 5 6 7 8 9 8 7 6 6 7 8 9 7 9 5 6 6 5 9 11 10 8 6 5 1 2 3 5 4 3 4 2 2 4 5 6 8 8 8 9 13 15 16 16 16 17 18 17 16 16 18 21 22 22 22 20 18 15 12 10 10 11 12 13
6 5 5 3 3 2 3 4 4 4 5 6 6 5 5 5 4 4 4 4 5 5 6 6 8 8 8 8 7 8 7 7 7 8 8 5 5 7 6 7 7 9 10 8 7 5 2 1 2 3 1 3 2 2 4 8 7 9 11 9 10 11 15 17 18 17 18 19 19 19 19 20 21 21 22 21 20 17 14 12 11 11 12 12 13
5 5 5 3 2 1 2 2 2 3 3 5 6 5 4 5 4 4 5 3 4 5 5 6 7 7 7 5 5 6 8 6 8 7 7 7 8 8 8 7 6 7 9 10 7 6 7 5 2 3 1 1 2 3 3 5 7 9 11 11 12 13 16 19 20 19 19 21 21 21 20 21 22 21 21 20 19 17 16 14 12 12 13 13 13
4 4 5 2 3 1 1 2 1 1 1 3 4 5 4 4 4 4 4 1 3 4 4 5 7 6 5 6 4 4 7 7 7 6 5 6 8 9 9 8 7 8 6 8 8 6 6 8 6 4 4 3 3 4 5 5 7 8 8 12 13 14 19 21 21 21 21 23 23 22 21 21 22 20 19 19 18 18 17 16 14 14 15 15 14
5 7 5 4 3 3 2 3 2 2 3 2 2 4 3 4 4 3 4 2 2 4 3 4 6 6 6 5 4 4 5 6 7 8 6 6 6 8 9 9 9 8 7 7 8 8 8 9 7 8 6 4 5 6 6 9 9 10 8 11 13 15 19 20 22 22 22 24 25 25 23 21 20 19 18 18 18 18 19 17 17 16 16 17 16
6 7 5 5 6 4 3 4 2 3 3 3 2 3 2 2 3 2 3 2 1 2 2 3 4 5 5 6 2 2 4 4 5 6 5 5 4 6 8 9 7 7 9 8 7 7 7 7 8 8 6 7 8 11 10 9 10 10 9 9 11 14 16 16 18 20 21 24 25 26 24 21 19 18 18 18 18 18 19 19 19 19 18 18 18
9 10 7 6 6 5 6 5 4 3 3 3 3 4 4 2 4 3 2 2 2 2 1 1 2 3 3 3 4 3 4 5 6 7 6 4 5 4 6 8 9 8 8 8 8 8 9 8 10 10 9 11 11 10 11 13 13 13 11 11 12 14 14 16 16 18 20 22 24 24 22 20 19 18 18 18 18 19 20 21 21 20 20 21 21
10 11 9 9 7 7 7 6 5 5 4 3 3 4 4 4 3 5 5 4 4 3 3 1 1 1 1 2 2 2 2 4 5 7 6 6 5 5 5 5 6 6 7 9 7 8 8 12 13 12 12 13 13 12 14 12 12 12 12 11 11 14 14 14 17 16 20 21 22 21 20 20 19 19 19 19 20 21 21 22 23 22 21 22 21
11 11 11 10 9 8 8 7 5 6 5 4 3 3 4 4 4 5 6 6 5 4 3 3 2 2 3 3 1 2 4 3 4 4 6 7 7 6 6 7 6 6 7 7 9 8 7 9 11 12 12 13 13 12 12 12 12 12 10 9 10 10 13 15 16 16 19 21 20 20 21 21 21 21 21 21 21 22 22 23 23 22 21 21 21
12 12 11 11 12 10 9 9 7 6 6 4 4 4 4 4 4 4 6 6 6 4 4 5 4 4 3 3 3 3 4 4 4 4 4 5 6 7 7 7 6 5 6 8 7 8 8 8 11 10 11 12 12 12 12 12 11 9 10 9 10 11 11 13 15 14 15 19 18 19 21 22 22 22 23 22 22 22 22 22 22 21 20 20 21
14 12 13 12 12 12 10 9 9 7 7 5 5 4 4 4 3 2 3 6 6 5 5 5 6 6 5 4 3 5 5 4 4 4 4 4 4 6 8 8 7 6 6 7 6 9 10 9 9 10 10 11 12 11 12 10 9 9 9 9 10 11 12 11 10 13 14 18 19 20 19 20 20 20 22 22 22 23 24 23 22 22 21 19 20
15 13 13 12 12 12 11 9 10 8 8 8 5 4 5 5 4 3 3 3 5 5 5 6 6 7 6 5 5 5 5 5 4 5 5 5 6 7 8 8 9 10 8 9 10 9 9 7 9 9 11 10 11 11 10 8 6 6 6 7 9 10 10 8 7 9 13 15 15 15 14 14 17 19 21 22 23 25 26 25 24 25 24 22 20
11 14 13 12 13 12 11 10 9 9 8 8 8 6 6 6 6 5 4 3 3 5 6 5 6 6 6 6 6 6 6 5 5 5 6 6 7 7 7 8 10 11 11 11 10 10 11 9 9 9 8 9 11 8 8 8 8 8 6 6 7 7 9 10 6 5 11 14 14 14 14 16 18 17 19 22 24 26 27 27 27 28 27 25 23
11 9 13 11 13 13 12 10 9 9 9 8 7 7 7 6 6 5 4 5 4 4 5 6 7 7 7 8 7 7 6 6 6 6 7 7 8 7 8 10 10 10 11 12 13 12 11 10 9 8 10 8 10 10 9 10 9 8 7 9 7 6 6 9 10 9 9 12 10 9 11 12 11 16 18 20 22 25 27 27 28 28 29 27 25
22 17 11 13 12 12 13 12 11 10 10 9 9 8 7 6 7 7 5 4 5 5 4 5 5 5 6 6 7 7 8 6 7 7 7 8 9 8 7 9 9 9 9 10 11 12 12 12 11 11 11 10 9 9 8 8 7 5 5 10 9 8 8 9 9 11 10 8 7 9 9 13 13 14 17 17 19 23 24 26 24 28 30 29 28
21 20 21 17 13 13 14 13 12 11 11 11 9 7 7 7 6 5 6 5 5 6 6 5 4 4 4 5 6 4 4 5 7 7 8 8 8 9 8 9 9 9 9 9 9 9 9 10 10 11 10 9 9 10 10 9 8 8 7 7 9 9 12 12 11 8 7 8 7 7 8 12 14 12 14 15 17 20 19 21 24 26 30 32 30
22 20 18 18 17 12 13 15 13 11 11 11 11 9 8 9 7 6 5 6 6 6 7 7 5 5 4 5 5 4 5 6 6 7 8 8 8 8 9 10 11 11 11 10 9 10 10 9 10 10 10 9 9 10 10 10 11 9 9 10 10 12 13 12 9 6 6 9 8 12 8 13 16 14 12 13 15 18 18 21 27 30 32 33 32
22 21 17 14 15 15 11 12 14 13 12 11 14 12 10 10 9 8 7 6 7 7 7 7 7 7 6 6 7 8 7 7 9 8 7 8 9 8 8 9 11 12 13 13 12 12 11 11 11 10 12 10 10 12 11 13 11 10 10 13 13 14 13 12 12 11 8 11 11 10 8 10 15 14 11 12 13 15 18 23 28 30 32 33 32
29 24 18 14 12 15 17 14 10 13 13 12 13 15 14 12 10 9 8 7 6 6 7 7 8 8 9 8 7 7 8 6 8 11 11 8 6 6 7 7 8 10 11 11 14 14 15 14 14 13 13 13 13 13 15 16 17 13 12 11 11 12 13 11 9 10 6 11 10 10 9 10 15 13 10 9 12 13 14 20 26 29 32 33 32
27 27 23 17 14 15 17 19 19 19 18 14 11 13 14 14 12 10 8 8 7 6 7 8 8 8 8 9 9 9 9 8 9 13 14 12 12 10 10 11 12 10 9 10 10 10 14 15 16 15 14 18 14 16 17 17 16 14 14 12 12 10 9 7 9 10 9 14 12 11 10 9 12 10 8 6 7 11 13 18 27 30 32 32 31
27 29 30 26 23 21 21 21 20 20 19 25 22 16 13 12 10 11 10 10 9 9 8 8 9 10 10 9 9 9 10 12 12 12 16 17 15 13 12 11 11 12 12 13 15 15 15 15 14 13 14 15 14 14 16 18 16 15 16 14 14 13 10 10 12 11 10 14 15 14 7 9 13 13 9 7 9 12 14 16 26 30 32 32 32
30 30 30 27 24 22 20 19 19 17 20 23 24 23 19 18 18 19 15 12 10 10 10 11 11 12 12 12 11 10 10 11 11 12 13 18 20 17 15 13 13 13 12 11 10 11 13 14 13 12 13 13 11 12 13 14 14 15 14 16 18 16 12 10 8 11 11 14 19 16 10 10 15 15 10 11 15 13 16 17 21 29 32 32 32
30 31 32 31 29 26 23 20 18 17 17 21 23 21 22 22 24 21 19 15 12 10 10 12 13 14 15 15 15 13 13 12 12 13 12 15 19 19 19 17 17 16 14 14 12 11 9 8 8 7 7 7 6 6 6 7 10 13 15 15 13 13 12 10 9 11 9 14 20 21 14 10 15 19 14 17 19 17 18 19 21 24 29 30 30
30 31 33 32 30 27 26 24 20 18 16 18 20 23 22 23 25 24 22 20 15 12 10 11 13 14 15 15 18 18 16 15 15 16 16 19 19 18 20 20 19 17 15 18 19 18 14 10 7 5 3 3 4 4 5 6 7 14 17 11 13 19 15 13 12 12 12 16 19 29 21 14 16 22 19 19 22 20 22 22 24 25 26 25 27
28 27 27 29 29 28 27 26 21 18 17 18 18 19 23 26 26 25 25 23 18 15 14 13 14 15 16 14 13 16 20 20 17 17 18 23 21 21 21 21 19 16 15 21 23 22 23 20 14 12 10 8 9 10 9 5 8 14 18 14 18 22 17 15 16 17 14 13 20 34 22 15 18 21 25 23 21 22 25 26 27 27 26 26 25
Wind_Direction
93 88 91 88 88 94 95 96 91 84 86 87 85 74 77 76 87 98 103 111 120 115 111 103 110 119 120 121 124 125 125 128 134 133 131 123 119 107 94 94 97 98 97 95 92 88 85 81 79 73 70 65 63 62 60 60 58 58 58 58 60 62 65 67 68 72 76 77 77 77 77 77 76 74 71 71 70 70 68 66 64 62 60 57 56
91 91 89 88 92 94 92 90 91 85 84 80 78 79 76 75 81 93 107 114 110 101 114 113 88 108 114 120 122 120 122 129 131 129 126 122 116 112 92 96 98 99 98 95 91 89 84 79 74 71 67 64 61 61 60 60 60 60 60 63 67 68 70 73 75 78 81 81 80 80 79 78 76 73 71 69 70 69 68 68 66 63 60 58 56
90 90 97 96 97 96 91 92 93 87 85 82 85 84 84 77 83 87 94 101 107 111 112 122 124 109 110 117 115 120 122 125 128 125 120 117 116 115 108 94 96 96 95 92 90 86 81 78 74 69 66 63 62 60 61 61 61 62 64 68 70 72 75 77 81 83 84 84 82 82 81 79 77 74 72 71 70 69 67 66 64 63 60 58 56
89 93 97 99 96 95 94 88 84 81 80 83 83 85 81 84 89 95 101 106 107 117 128 131 128 134 132 112 114 116 119 119 120 118 117 117 116 113 114 110 97 95 92 90 87 82 80 76 73 69 67 65 65 63 63 63 62 66 70 71 73 77 82 84 84 86 86 85 84 82 81 79 77 75 74 72 71 69 67 65 63 61 59 57 56
92 96 99 95 93 93 92 86 85 82 84 82 84 87 84 83 89 93 99 104 117 116 115 122 135 127 131 128 114 112 116 116 118 117 114 113 114 113 112 112 111 95 89 87 82 80 79 76 72 70 69 66 67 66 64 64 68 71 72 75 80 84 86 86 87 87 86 84 82 81 80 79 77 76 73 72 71 69 67 64 63 62 61 60 57
95 99 97 96 95 96 90 91 89 91 89 85 84 88 87 85 85 96 101 108 107 106 113 123 128 126 123 127 128 120 114 113 112 111 112 113 112 111 109 108 105 103 99 84 80 80 76 73 71 69 68 68 68 67 67 69 72 75 77 79 83 86 87 87 86 85 85 83 82 80 78 77 76 75 73 72 70 68 67 65 63 62 61 60 59
90 91 93 94 94 95 94 92 92 93 89 86 82 84 78 79 85 93 100 99 100 107 110 113 112 122 122 126 132 128 125 114 107 112 112 112 111 108 107 104 101 98 95 96 87 78 74 71 70 69 69 70 69 68 69 73 75 78 80 84 86 87 88 87 87 85 84 83 81 79 78 77 76 75 74 73 71 68 66 65 63 61 60 58 57
80 80 85 87 91 92 91 91 88 89 85 87 86 86 84 87 87 86 98 103 107 110 111 105 104 109 116 118 119 123 122 121 108 110 107 109 107 105 103 100 96 94 91 93 92 86 73 72 70 70 70 70 69 70 73 76 78 80 83 85 87 88 88 87 86 85 83 82 80 79 77 77 76 75 74 73 71 68 66 65 63 60 59 57 57
98 94 78 84 89 90 90 85 84 87 90 90 81 81 85 89 90 90 92 98 102 105 106 103 98 104 109 114 116 112 112 109 114 110 106 104 103 102 99 97 94 87 92 89 87 84 79 72 72 71 70 69 68 71 76 79 80 82 84 86 87 87 87 86 84 83 82 80 79 78 77 76 75 75 75 74 72 68 65 64 64 63 62 60 58
107 108 108 89 91 93 96 94 89 88 91 96 94 95 97 93 89 88 89 98 100 99 97 98 99 99 102 104 106 108 110 115 114 111 109 105 99 96 93 93 92 90 90 84 79 81 83 79 73 73 70 69 70 73 77 79 82 84 85 86 87 87 86 84 83 81 80 78 77 76 76 76 77 74 73 72 72 70 67 65 62 61 63 59 56
108 110 113 103 100 98 99 97 96 95 98 101 100 98 99 98 86 93 99 101 97 97 93 90 97 98 100 103 108 108 111 109 109 109 108 103 102 98 92 89 88 87 83 81 78 81 82 84 83 80 77 70 72 75 77 79 82 84 85 86 85 85 85 83 82 80 79 78 77 76 77 76 76 75 74 72 72 68 67 66 67 66 64 58 54
101 107 111 111 104 99 98 97 96 96 96 95 94 94 91 94 96 97 104 106 100 99 105 105 104 105 102 104 107 106 109 109 110 107 106 103 101 99 94 92 90 86 79 78 81 79 80 81 80 78 76 77 76 78 79 81 84 85 85 85 85 84 84 83 82 80 80 79 78 76 73 74 76 77 74 71 67 66 65 65 64 65 63 58 51
97 102 105 104 103 100 99 96 96 96 95 83 79 80 83 85 89 93 93 96 98 98 99 100 107 108 112 106 105 108 106 105 104 103 100 100 100 93 93 89 88 87 85 88 83 75 77 77 78 76 77 83 86 81 81 83 86 87 86 86 85 85 84 83 82 81 81 80 80 76 74 72 73 73 69 66 65 64 64 62 60 60 58 55 49
94 93 97 97 96 93 94 89 91 96 93 87 76 75 75 78 83 90 91 88 94 98 99 105 106 101 106 110 113 114 106 103 100 100 97 96 92 94 88 79 81 83 86 82 77 71 72 74 76 76 79 87 92 93 91 91 91 87 87 87 86 85 84 84 84 84 83 82 80 75 73 71 69 69 67 65 63 62 61 58 54 54 50 48 45
91 88 88 90 88 88 88 90 91 90 88 90 83 74 74 75 75 80 88 94 93 95 98 103 102 106 106 111 107 110 114 111 109 105 101 88 82 83 84 78 78 85 83 77 72 71 72 64 70 74 82 88 92 91 91 91 89 86 85 86 87 87 87 86 86 86 84 85 81 75 71 68 69 69 67 63 60 58 55 52 48 44 40 39 37
92 91 89 89 79 81 86 89 85 86 82 82 81 77 81 82 80 82 89 93 98 100 95 96 103 113 113 108 106 110 113 108 103 108 86 81 68 76 74 80 85 96 104 79 71 65 61 60 62 73 77 85 91 91 90 91 83 81 82 84 86 86 86 87 87 88 88 85 77 72 70 66 65 65 68 60 57 51 44 42 38 36 30 24 20
92 90 90 84 78 76 83 85 80 80 82 77 79 77 81 80 80 87 88 91 97 97 105 108 107 102 105 114 121 127 106 101 111 115 114 93 80 69 80 81 90 94 91 84 82 65 56 66 84 97 100 102 95 92 91 88 86 89 85 79 77 78 83 84 85 86 81 76 73 70 66 63 62 63 62 59 47 37 32 26 22 23 19 17 17
91 90 94 89 80 80 79 81 82 80 79 78 76 82 79 82 79 81 89 94 101 107 103 109 109 110 106 109 109 114 114 112 137 122 116 112 nan 48 72 80 90 90 90 84 67 72 70 73 88 96 104 103 108 104 99 90 90 86 78 75 63 71 74 73 76 73 64 63 65 65 65 60 59 56 51 45 34 29 23 17 17 18 17 17 19
84 92 93 97 91 93 83 79 80 85 86 83 84 83 77 79 82 92 95 99 110 123 112 109 118 123 124 122 113 119 112 128 134 126 128 109 105 82 90 102 109 104 89 nan 67 75 88 89 90 96 109 111 107 127 121 118 76 61 54 57 52 54 65 66 62 56 49 47 50 55 57 52 43 36 35 32 26 18 16 17 19 19 19 17 16
80 90 85 95 99 101 98 91 83 87 91 82 81 89 91 92 81 90 102 110 106 110 120 128 117 117 127 142 140 133 140 130 122 101 87 100 102 109 112 110 112 95 91 88 97 72 81 99 93 105 113 111 118 129 141 99 98 78 66 46 47 38 44 45 43 39 26 25 29 41 37 24 18 16 21 21 18 11 11 15 18 20 20 13 8
81 81 81 87 102 103 102 101 88 91 94 91 96 95 88 94 97 105 106 113 119 109 114 117 135 116 139 137 145 139 133 132 130 113 94 96 97 125 126 131 126 103 89 104 91 81 71 89 102 107 115 121 154 141 95 98 62 67 51 44 42 34 10 2 12 3 360 9 4 9 11 3 0 1 5 9 9 9 9 11 13 17 15 7 2
85 88 88 88 100 103 108 105 102 96 93 98 99 99 97 106 96 100 105 112 119 114 114 106 115 114 111 110 139 136 144 138 131 130 109 98 104 111 124 113 127 118 115 88 96 95 122 119 113 130 131 147 150 147 140 94 38 27 29 26 30 28 5 336 345 343 351 355 348 347 350 353 351 352 355 358 1 4 7 7 7 8 5 359 359
90 93 96 94 101 101 104 103 108 111 101 101 104 102 113 109 111 105 99 106 108 121 116 101 107 109 107 104 104 97 109 112 107 117 99 120 132 123 127 153 134 175 148 110 120 124 148 161 165 162 164 160 154 146 172 45 25 10 360 11 15 10 359 351 339 352 352 349 342 339 342 346 347 347 349 351 354 357 3 2 1 359 354 352 354
105 101 102 102 103 104 103 104 107 106 99 107 109 98 108 115 108 96 91 103 108 128 121 118 111 103 105 111 110 107 113 94 93 94 99 97 122 124 139 152 148 127 129 135 126 134 133 183 175 166 167 182 168 176 142 323 350 344 345 2 0 354 352 351 347 3 355 343 340 338 339 341 343 344 346 347 348 353 355 357 356 353 349 349 358
111 98 108 104 103 101 105 111 109 102 106 107 114 104 101 93 89 94 87 94 113 120 123 112 111 94 94 93 94 120 102 95 92 97 104 102 132 144 138 149 141 134 134 136 132 140 141 181 193 196 208 196 177 216 286 323 335 351 351 358 358 349 350 355 350 1 353 342 342 343 343 343 343 344 345 346 348 347 350 352 352 352 356 1 13
122 101 99 108 105 98 113 110 107 108 109 110 110 107 113 87 87 75 90 96 108 122 120 120 132 122 97 116 116 100 109 117 105 99 101 112 121 127 144 151 156 151 147 148 133 138 142 140 157 229 241 253 234 236 275 320 331 357 359 346 347 342 347 352 352 1 355 346 345 346 346 344 344 343 344 347 348 347 347 350 355 7 18 25 nan
127 132 121 109 114 110 111 123 110 113 117 116 105 114 117 127 82 78 85 89 89 103 112 121 129 129 132 131 128 150 138 145 137 148 133 128 128 138 167 174 159 160 163 150 144 93 81 144 160 204 251 279 302 310 312 317 336 355 351 334 326 347 348 355 353 0 355 347 348 348 346 346 345 343 345 345 349 350 355 2 14 28 36 37 33
148 153 133 130 133 118 121 119 122 123 126 118 116 118 117 116 116 93 78 86 77 86 102 109 119 130 129 142 157 149 149 155 160 161 163 171 152 171 190 195 180 156 162 167 164 156 147 194 159 190 244 278 297 314 315 322 330 351 343 329 331 342 356 356 354 357 353 345 343 341 343 344 346 348 349 353 356 4 14 24 33 35 34 30 28
155 153 162 146 157 145 123 128 131 148 133 125 125 122 114 116 117 114 91 90 63 75 89 95 107 118 132 129 149 146 142 156 164 160 160 164 168 182 188 209 195 196 173 175 166 173 163 188 219 193 119 257 330 306 302 301 324 330 322 329 336 338 353 359 354 354 350 342 336 338 340 344 349 354 360 5 8 13 23 30 33 28 22 17 18
180 175 178 165 173 157 192 197 200 190 165 146 140 136 129 122 117 108 95 89 57 76 80 92 103 113 125 139 132 133 136 152 147 164 163 172 178 183 187 180 211 196 190 186 165 176 173 180 228 221 191 173 240 254 280 298 330 336 318 320 330 336 348 352 349 350 347 340 337 341 344 346 353 3 11 13 16 15 18 24 22 19 13 6 6
212 201 202 205 193 184 204 212 229 238 229 211 169 158 157 146 146 106 117 102 19 44 68 75 99 113 117 120 128 113 135 138 159 159 170 174 171 185 182 194 202 213 219 204 195 179 210 196 201 232 230 220 232 240 287 299 311 324 311 310 317 336 342 339 345 346 347 343 341 345 352 356 2 12 15 14 13 14 15 15 13 10 5 357 354
214 213 213 218 217 221 218 227 255 239 231 223 235 200 205 179 169 148 135 147 232 330 37 54 96 105 103 114 136 142 149 185 187 179 176 162 182 183 185 201 209 226 230 212 209 181 194 194 204 216 225 232 246 265 265 274 294 311 292 297 301 326 323 322 337 348 350 347 346 350 358 7 11 14 14 12 9 8 8 5 6 4 359 350 345
223 229 226 228 233 235 223 218 247 254 254 235 235 226 228 224 194 214 201 210 207 199 264 2 64 83 88 93 112 143 191 194 184 186 199 182 183 196 196 207 202 208 225 218 212 199 191 208 225 227 212 231 245 251 240 254 271 286 296 297 302 308 317 323 327 346 355 350 351 354 2 9 13 11 10 9 4 5 4 2 359 358 351 343 340
233 236 240 229 235 245 237 234 221 244 269 265 253 237 236 235 204 218 241 248 233 221 232 212 187 166 243 73 108 135 209 201 198 189 187 199 192 189 195 192 200 196 225 235 222 227 201 206 211 221 223 236 240 248 253 253 258 272 284 293 301 309 322 325 322 333 354 354 354 356 360 5 10 8 5 4 1 358 358 355 351 351 347 341 338
238 242 244 242 243 243 246 247 241 230 253 268 267 264 249 248 226 205 235 251 247 238 239 247 239 204 217 248 220 238 237 228 199 192 196 192 211 210 194 208 212 210 227 246 244 229 221 213 231 228 234 236 246 251 249 260 264 266 274 285 305 310 313 316 319 330 347 355 356 355 359 3 6 4 0 360 357 356 356 355 352 352 351 345 342
244 239 249 253 247 247 248 243 247 238 246 251 259 268 273 260 239 213 212 233 246 249 245 245 246 248 236 234 234 257 253 248 223 225 211 208 199 224 223 217 224 209 214 240 252 259 252 241 233 249 245 238 243 248 252 256 258 264 280 297 300 303 302 312 326 335 344 356 1 1 1 2 3 359 358 359 360 1 3 2 359 358 358 352 344
232 239 247 251 251 253 255 248 243 241 246 255 243 246 250 252 266 254 208 221 228 234 244 246 251 255 257 253 252 257 257 253 240 249 252 242 224 217 229 234 235 227 229 248 256 265 261 260 245 250 255 253 259 254 257 257 261 272 282 297 303 301 302 313 331 337 344 355 6 5 2 1 358 359 360 2 2 5 9 8 3 2 2 358 349
221 232 245 250 253 256 254 256 250 244 243 251 249 235 245 253 260 251 242 216 228 235 229 240 244 248 248 255 260 265 263 267 258 261 268 280 265 253 239 234 244 245 245 254 262 262 262 262 264 241 255 264 253 263 266 270 271 275 288 294 284 291 293 294 319 320 312 327 336 349 359 4 7 9 6 2 2 5 13 12 9 9 9 4 357
230 228 234 243 252 257 257 257 256 252 247 240 243 241 237 241 253 251 247 249 225 228 234 237 239 243 247 248 249 260 267 272 275 274 275 277 282 278 268 259 252 252 251 249 253 261 268 267 260 271 259 265 275 259 263 275 284 300 313 289 282 291 293 308 321 323 322 339 352 2 2 2 6 359 4 3 1 9 16 15 13 13 11 8 360
263 253 238 246 246 255 262 261 256 252 252 247 243 245 241 242 245 247 255 250 250 233 226 230 233 233 239 242 246 251 262 266 275 274 280 279 275 276 279 271 264 259 257 259 255 256 254 257 266 261 271 267 264 277 270 260 261 263 285 300 300 290 298 301 318 340 341 338 347 351 2 9 4 1 1 357 3 13 17 15 16 14 13 10 3
225 224 240 264 268 258 259 262 261 252 251 248 245 251 255 244 241 244 254 262 260 257 246 240 237 234 230 233 239 246 257 280 304 292 290 290 276 282 281 280 277 273 268 265 268 273 270 270 262 262 261 262 269 266 262 271 284 287 271 278 287 300 305 300 311 328 347 359 345 335 344 344 346 347 344 340 350 6 16 14 13 13 12 11 8
235 229 222 220 255 282 270 264 263 259 253 249 259 306 288 260 262 258 253 261 271 272 271 257 249 253 247 237 238 275 311 313 309 311 310 312 310 292 286 285 288 283 281 277 273 271 272 268 270 269 262 264 268 275 278 279 275 258 247 262 279 285 280 295 301 317 339 332 320 323 336 330 336 344 337 343 342 350 5 3 11 6 7 10 9
252 237 221 218 221 247 291 284 277 269 265 265 301 310 320 328 296 285 293 277 275 294 297 289 282 275 261 258 249 239 249 271 288 318 312 313 309 311 312 305 292 287 280 281 276 274 275 273 267 267 265 258 260 266 270 268 265 267 269 267 277 278 286 294 302 284 293 319 312 311 327 329 331 345 349 347 343 341 355 8 14 8 4 5 7
257 257 242 224 219 230 253 290 295 285 276 290 304 308 319 328 320 296 293 300 292 298 311 316 310 299 290 277 258 253 250 254 262 275 305 323 320 312 302 294 294 298 291 282 276 267 266 267 264 266 263 262 257 262 260 262 262 259 264 275 280 281 282 287 291 297 300 299 310 302 329 330 330 346 353 348 343 343 354 8 9 6 0 2 3
243 240 245 246 231 229 236 238 269 290 281 297 308 312 317 321 326 311 277 288 299 291 296 309 313 313 306 298 287 270 259 271 266 259 260 262 286 318 312 306 293 286 280 283 284 276 268 268 269 265 270 264 263 266 268 267 269 267 260 257 263 268 272 272 280 278 283 296 295 301 318 326 318 330 347 355 337 336 351 0 1 357 357 0 360
238 245 242 236 235 235 236 242 244 239 247 252 287 303 310 316 317 306 275 283 284 288 286 286 290 301 305 301 299 296 293 286 273 273 271 271 265 257 250 248 249 254 267 275 274 273 268 267 269 269 266 266 271 270 270 268 269 271 270 267 263 253 250 259 271 279 282 284 300 298 298 311 317 325 340 357 337 320 334 343 348 349 352 356 355
240 236 239 237 228 226 233 237 242 254 256 264 272 278 269 263 269 284 277 276 271 275 282 282 279 284 288 295 295 298 294 294 291 295 285 281 277 273 271 267 262 257 256 256 261 262 262 260 264 268 266 267 268 270 270 270 270 272 273 273 272 265 254 250 252 269 269 287 291 288 305 308 301 309 329 331 315 308 302 318 338 342 345 349 351
238 240 241 242 240 238 238 239 241 244 262 274 268 274 280 284 284 269 256 256 270 276 281 281 282 279 278 283 286 289 289 289 299 318 306 289 286 286 284 277 271 268 265 270 279 275 270 268 265 265 266 271 277 275 275 274 270 266 261 253 252 251 239 234 245 258 272 283 291 292 287 295 301 308 312 307 305 316 299 304 326 336 339 342 344
234 235 237 238 240 240 238 242 244 246 243 270 278 271 273 274 269 263 268 265 257 261 276 282 283 284 282 281 280 280 281 283 296 309 309 298 282 288 289 286 281 276 274 272 286 297 291 283 283 284 286 290 295 303 298 303 283 268 257 250 252 252 244 235 244 258 274 281 286 294 292 294 298 300 303 301 308 308 306 310 311 327 332 334 336
227 229 230 232 233 236 235 232 237 234 236 237 252 272 276 272 271 267 267 268 270 268 264 268 272 275 282 300 291 283 281 276 287 300 303 292 281 283 285 287 287 288 285 281 276 279 300 310 315 318 311 288 269 252 251 258 274 269 270 269 268 263 258 259 253 261 260 272 285 287 285 301 289 291 297 293 298 300 305 305 309 312 319 323 333
227 226 227 229 230 231 230 233 232 229 227 236 245 250 267 271 266 259 262 263 264 266 265 262 262 264 266 275 294 291 284 284 290 295 300 295 289 289 288 286 289 293 292 285 286 283 280 280 272 263 242 237 247 255 258 280 283 275 273 271 262 267 266 262 261 254 248 266 281 285 293 290 289 291 295 286 291 293 293 302 306 308 312 314 319